"timestamp";"minute";"mean_h";"std_h";"mean_l";"std_l"
2019-10-31T23:00:56;1;-122.387215;5.217798;-128.49586;2.6932793
2019-10-31T23:05:56;1;-123.04414;4.885518;-128.4804;2.7669842
2019-10-31T23:10:56;1;-122.86831;5.0071006;-128.44614;2.7105694
2019-10-31T23:15:56;1;-122.27789;5.183093;-128.46255;2.6403065
2019-10-31T23:20:56;1;-122.67991;4.7504287;-127.58598;2.8603263
2019-10-31T23:25:56;1;-122.17373;5.1361465;-128.29805;2.6279876
2019-10-31T23:30:56;1;-122.64538;5.1894197;-128.81659;2.6468868
2019-10-31T23:35:56;1;-121.891464;5.355497;-128.13968;2.8401034
2019-10-31T23:40:56;1;-122.15553;5.356028;-128.69305;2.7028673
2019-10-31T23:45:56;1;-122.642975;4.9359674;-127.48983;3.1671968
2019-10-31T23:50:56;1;-121.92374;5.2478485;-127.9156;2.817931
2019-10-31T23:55:56;1;-121.98276;5.456697;-128.56174;2.7110512
2019-11-01T00:00:56;1;-122.34684;5.267822;-128.22078;2.9115021
2019-11-01T00:05:56;1;-121.673004;5.34675;-128.18826;2.6112764
2019-11-01T00:10:56;1;-122.03483;5.294263;-127.12973;3.0806627
2019-11-01T00:15:56;1;-122.24433;5.2101946;-128.27782;2.6859922
2019-11-01T00:20:56;1;-121.79757;5.582224;-126.96271;3.3452842
2019-11-01T00:25:56;1;-122.50724;5.244611;-128.63794;2.758898
2019-11-01T00:30:56;1;-122.39767;5.320631;-128.65036;2.7200024
2019-11-01T00:35:56;1;-122.10677;5.3481917;-128.09213;2.8818755
2019-11-01T00:40:56;1;-122.18105;5.2185698;-128.36832;2.7013721
2019-11-01T00:45:56;1;-121.95075;5.576263;-129.19894;2.4118538
2019-11-01T00:50:56;1;-122.38733;5.2850575;-128.53265;2.7687018
2019-11-01T00:55:56;1;-122.31665;5.390375;-128.71655;2.727174
2019-11-01T01:00:56;1;-122.39547;5.1768126;-128.39418;2.6838493
2019-11-01T01:05:56;1;-122.156624;5.27103;-128.58499;2.5700696
2019-11-01T01:10:56;1;-122.29882;5.2230697;-128.36346;2.7433205
2019-11-01T01:15:56;1;-122.84105;5.1469603;-128.87193;2.7535055
2019-11-01T01:20:56;1;-121.5865;5.6697803;-128.53233;2.774099
2019-11-01T01:25:56;1;-122.27283;5.266942;-128.61024;2.649106
2019-11-01T01:30:56;1;-122.00948;5.5290494;-128.70224;2.781191
2019-11-01T01:35:56;1;-121.98435;5.53225;-128.24475;2.9886205
2019-11-01T01:40:56;1;-122.429054;5.2050767;-128.7706;2.4987342
2019-11-01T01:45:56;1;-121.51176;5.823453;-128.60025;2.873731
2019-11-01T01:50:56;1;-122.64154;5.15901;-128.82867;2.5516365
2019-11-01T01:55:56;1;-122.75779;5.315301;-127.89976;3.0181901
2019-11-01T02:00:56;1;-122.31279;5.1060705;-127.98907;2.8500633
2019-11-01T02:05:56;1;-122.84582;4.901915;-128.14113;2.7869687
2019-11-01T02:10:56;1;-122.1479;5.446591;-128.90326;2.6809115
2019-11-01T02:15:56;1;-122.546326;5.072676;-128.34569;2.6675172
2019-11-01T02:20:56;1;-122.7913;5.21959;-128.69936;2.901249
2019-11-01T02:25:56;1;-122.04668;5.4304786;-128.94046;2.542452
2019-11-01T02:30:56;1;-122.3518;5.3632793;-128.67683;2.7930527
2019-11-01T02:35:56;1;-121.81336;5.654237;-128.8425;2.7758136
2019-11-01T02:40:56;1;-121.714645;5.664781;-128.75188;2.7542148
2019-11-01T02:45:56;1;-122.13351;5.4327016;-128.47937;2.9410455
2019-11-01T02:50:56;1;-122.4434;5.294244;-128.78738;2.7080743
2019-11-01T02:55:56;1;-122.47364;4.9975615;-128.44232;2.559975
2019-11-01T03:00:56;1;-121.98471;5.371821;-128.18779;2.7941206
2019-11-01T03:05:56;1;-122.89207;5.0441723;-128.80806;2.6677184
2019-11-01T03:10:56;1;-122.52212;4.9975357;-128.22029;2.7239063
2019-11-01T03:15:56;1;-122.41469;5.0930758;-128.45589;2.605372
2019-11-01T03:20:56;1;-122.50275;5.1123095;-128.62451;2.6316044
2019-11-01T03:25:56;1;-122.03651;5.406374;-127.88499;3.0868344
2019-11-01T03:30:56;1;-122.79265;5.0661626;-128.62213;2.71253
2019-11-01T03:35:56;1;-122.355255;5.3592696;-129.09296;2.5542936
2019-11-01T03:40:56;1;-122.653656;5.11194;-128.81422;2.5634649
2019-11-01T03:45:56;1;-123.13507;4.8168116;-128.5193;2.7284849
2019-11-01T03:50:56;1;-122.78974;5.117616;-128.76746;2.7651963
2019-11-01T03:55:56;1;-122.33541;5.34482;-128.64113;2.8653107
2019-11-01T04:00:56;1;-122.40882;5.3116684;-128.36386;2.9840138
2019-11-01T04:05:56;1;-122.69946;5.3096805;-129.09079;2.7062345
2019-11-01T04:10:56;1;-122.877335;5.2768626;-129.20908;2.6824403
2019-11-01T04:15:56;1;-121.5837;5.5444965;-128.58533;2.6331422
2019-11-01T04:20:56;1;-122.0958;5.5299277;-129.21323;2.4946787
2019-11-01T04:25:56;1;-122.656654;5.2190437;-129.12463;2.4937177
2019-11-01T04:30:56;1;-122.581245;5.2400227;-129.05188;2.5657606
2019-11-01T04:35:56;1;-122.291046;5.093818;-128.21869;2.7118363
2019-11-01T04:40:56;1;-122.23592;5.3903103;-128.67638;2.7188053
2019-11-01T04:45:56;1;-120.762375;4.166648;-124.06096;3.2181296
2019-11-01T04:50:56;1;-122.66486;5.2850943;-129.25125;2.5710516
2019-11-01T04:55:56;1;-121.52727;5.7936873;-129.23557;2.4734533
2019-11-01T05:00:56;1;-122.77766;5.385895;-129.52924;2.4935608
2019-11-01T05:05:56;1;-122.12095;5.653351;-129.39398;2.499392
2019-11-01T05:10:56;1;-122.666534;5.3557987;-129.26436;2.6750746
2019-11-01T05:15:56;1;-122.33589;5.6606393;-129.55507;2.5897865
2019-11-01T05:20:56;1;-122.392746;5.168389;-128.02975;2.9689984
2019-11-01T05:25:56;1;-122.3164;5.4806304;-128.29057;3.146001
2019-11-01T05:30:56;1;-122.676865;5.4546704;-129.45163;2.6151254
2019-11-01T05:35:56;1;-122.629234;5.266039;-128.21475;3.1824784
2019-11-01T05:40:56;1;-122.66265;5.44867;-129.34189;2.6841214
2019-11-01T05:45:56;1;-122.48464;5.610068;-129.39752;2.7407453
2019-11-01T05:50:56;1;-122.76696;5.469026;-129.64488;2.5290053
2019-11-01T05:55:56;1;-121.45222;6.1512995;-129.66634;2.5465894
2019-11-01T06:00:56;1;-120.55747;6.3854933;-129.40105;2.6239316
2019-11-01T06:05:56;1;-120.653786;6.224424;-128.36185;2.9950988
2019-11-01T06:10:56;1;-119.4487;6.69196;-128.93013;2.5589836
2019-11-01T06:15:56;1;-118.379295;7.293442;-127.99598;2.9112067
2019-11-01T06:20:56;1;-118.592094;6.802911;-128.28857;2.588113
2019-11-01T06:25:56;1;-115.54074;8.061819;-128.1716;2.5850103
2019-11-01T06:30:56;1;-114.48324;8.075815;-126.97022;2.8336086
2019-11-01T06:35:56;1;-115.01531;8.148796;-127.870995;2.5476947
2019-11-01T06:40:56;1;-100.98119;15.549897;-128.46083;2.6206365
2019-11-01T06:45:56;1;-104.667786;13.409221;-125.23682;4.304059
2019-11-01T06:50:56;1;-99.13649;15.910411;-127.32145;2.50982
2019-11-01T06:55:56;1;-99.73081;16.282312;-128.55179;2.62689
2019-11-01T07:00:56;1;-100.1713;15.584187;-128.1104;2.5979946
2019-11-01T07:05:56;1;-97.23569;17.338673;-128.90588;2.6572142
2019-11-01T07:10:56;1;-101.30905;15.069786;-129.12878;2.617718
2019-11-01T07:15:56;1;-103.84975;14.136381;-128.86223;2.5232904
2019-11-01T07:20:56;1;-98.29249;16.66546;-128.65074;2.5668778
2019-11-01T07:25:56;1;-93.54691;19.405283;-128.96075;2.5310519
2019-11-01T07:30:56;1;-92.049126;20.096672;-128.90657;2.6569927
2019-11-01T07:35:56;1;-95.617386;18.362257;-129.33824;2.3855762
2019-11-01T07:40:56;1;-93.69906;18.85489;-128.99359;2.5780249
2019-11-01T07:45:56;1;-94.59104;18.490086;-129.04329;2.5396101
2019-11-01T07:50:56;1;-97.153755;17.048813;-129.00291;2.406258
2019-11-01T07:55:56;1;-95.25326;18.768333;-129.32037;2.479902
2019-11-01T08:00:56;1;-93.47985;19.20212;-128.90302;2.4114037
2019-11-01T08:05:56;1;-93.648865;18.949339;-129.01924;2.4978182
2019-11-01T08:10:56;1;-98.22;16.935976;-128.87547;2.530442
2019-11-01T08:15:56;1;-94.88622;18.71983;-128.64575;2.6366954
2019-11-01T08:20:56;1;-95.06566;18.486351;-128.93826;2.543261
2019-11-01T08:25:56;1;-94.46233;18.776531;-128.98885;2.5537024
2019-11-01T08:30:56;1;-95.83237;18.185051;-129.03888;2.3836546
2019-11-01T08:35:56;1;-97.33145;17.249086;-128.77792;2.4463353
2019-11-01T08:40:56;1;-102.40666;14.547904;-128.80072;2.4657245
2019-11-01T08:45:56;1;-91.28517;19.585281;-128.9716;2.5551827
2019-11-01T08:50:56;1;-95.33326;18.183727;-128.79668;2.5057034
2019-11-01T08:55:56;1;-95.43809;17.591068;-121.047585;5.8703194
2019-11-01T09:00:56;1;-95.38095;16.872114;-121.91409;4.7456384
2019-11-01T09:05:56;1;-98.18696;15.970489;-128.18094;2.5652745
2019-11-01T09:10:56;1;-96.945366;16.700686;-127.99166;2.501137
2019-11-01T09:15:56;1;-93.889084;18.37771;-127.92542;2.6078606
2019-11-01T09:20:56;1;-94.49846;17.616909;-127.76054;2.4847782
2019-11-01T09:25:56;1;-96.09416;17.233133;-127.626854;2.468922
2019-11-01T09:30:56;1;-101.8307;14.295783;-127.72205;2.54208
2019-11-01T09:35:56;1;-105.548805;12.417777;-127.86253;2.5342493
2019-11-01T09:40:56;1;-107.16853;11.912812;-127.86348;2.5513196
2019-11-01T09:45:56;1;-104.1216;13.12207;-127.52715;2.5274749
2019-11-01T09:50:56;1;-102.18525;14.14789;-127.83886;2.4987805
2019-11-01T09:55:56;1;-99.924385;15.177845;-127.617744;2.4590757
2019-11-01T10:00:56;1;-102.16587;13.976097;-127.49788;2.4410558
2019-11-01T10:05:56;1;-97.98806;16.062504;-127.37691;2.4208105
2019-11-01T10:10:56;1;-95.34554;17.270977;-127.70732;2.48596
2019-11-01T10:15:56;1;-96.615456;16.824894;-127.71863;2.4312556
2019-11-01T10:20:56;1;-101.251526;14.552731;-127.77121;2.6170108
2019-11-01T10:25:56;1;-95.68822;17.203623;-127.73919;2.4314096
2019-11-01T10:30:56;1;-101.19394;14.767045;-127.548775;2.5025308
2019-11-01T10:35:56;1;-99.9348;15.172583;-127.562965;2.4698503
2019-11-01T10:40:56;1;-92.188896;19.01175;-127.59586;2.450597
2019-11-01T10:45:56;1;-94.371185;17.696205;-127.108986;2.3949273
2019-11-01T10:50:56;1;-97.00318;16.81763;-127.39225;2.4650836
2019-11-01T10:55:56;1;-95.05617;17.775745;-127.74373;2.4733224
2019-11-01T11:00:56;1;-97.10651;16.860579;-127.80814;2.5633535
2019-11-01T11:05:56;1;-101.81434;14.326209;-127.74253;2.4166079
2019-11-01T11:10:56;1;-100.19639;14.958576;-127.68549;2.4938567
2019-11-01T11:15:56;1;-96.49883;16.679216;-127.180786;2.4916532
2019-11-01T11:20:56;1;-93.21929;18.565521;-127.69638;2.5989294
2019-11-01T11:25:56;1;-99.189766;15.517256;-127.42418;2.4597256
2019-11-01T11:30:56;1;-99.94305;14.834503;-127.06344;2.4375675
2019-11-01T11:35:56;1;-95.12013;17.12302;-126.82991;2.5253773
2019-11-01T11:40:56;1;-101.10586;14.390527;-127.14741;2.5805876
2019-11-01T11:45:56;1;-100.080635;15.122063;-127.33854;2.56507
2019-11-01T11:50:56;1;-94.184235;18.058691;-127.634026;2.4722397
2019-11-01T11:55:56;1;-95.91997;17.394682;-127.20788;2.5155044
2019-11-01T12:00:56;1;-99.72586;15.38011;-127.35909;2.6026907
2019-11-01T12:05:56;1;-93.854675;18.286852;-127.11354;2.548735
2019-11-01T12:10:56;1;-98.98216;16.12616;-127.72448;2.491555
2019-11-01T12:15:56;1;-94.554146;18.097765;-127.50714;2.449802
2019-11-01T12:20:56;1;-99.13345;16.125479;-127.661514;2.597884
2019-11-01T12:25:56;1;-98.13692;15.606277;-127.34654;2.4557161
2019-11-01T12:30:56;1;-96.00118;16.562243;-127.16909;2.5515993
2019-11-01T12:35:56;1;-97.15635;16.972937;-127.95638;2.452156
2019-11-01T12:40:56;1;-89.98718;20.45816;-127.80022;2.4946206
2019-11-01T12:45:56;1;-95.33672;17.718847;-127.6912;2.4717953
2019-11-01T12:50:56;1;-97.945465;16.51494;-127.600586;2.4922855
2019-11-01T12:55:56;1;-96.67596;16.938198;-127.724846;2.4472737
2019-11-01T13:00:56;1;-102.7829;13.94773;-127.65304;2.5229926
2019-11-01T13:05:56;1;-94.05878;18.476582;-127.748566;2.5125744
2019-11-01T13:10:56;1;-96.66608;16.94869;-127.535095;2.3652177
2019-11-01T13:15:56;1;-97.31417;16.687017;-127.45038;2.4577434
2019-11-01T13:20:56;1;-99.11655;15.827504;-127.82929;2.510618
2019-11-01T13:25:56;1;-96.19915;17.13419;-127.78794;2.4074152
2019-11-01T13:30:56;1;-95.142365;18.0377;-127.94681;2.5697165
2019-11-01T13:35:56;1;-96.899734;17.265022;-128.04108;2.5366423
2019-11-01T13:40:56;1;-96.607254;17.303106;-128.1751;2.474974
2019-11-01T13:45:56;1;-96.07656;17.129393;-127.51996;2.5620844
2019-11-01T13:50:56;1;-100.9957;14.58854;-127.65216;2.4583402
2019-11-01T13:55:56;1;-101.38493;14.584993;-127.62185;2.6149583
2019-11-01T14:00:56;1;-92.47746;18.82445;-127.99827;2.4478014
2019-11-01T14:05:56;1;-99.3929;15.400921;-127.80161;2.4812956
2019-11-01T14:10:56;1;-91.33922;19.873827;-127.50263;2.4468617
2019-11-01T14:15:56;1;-95.35335;17.245428;-127.60906;2.5264657
2019-11-01T14:20:56;1;-99.34354;15.893116;-127.72797;2.4600139
2019-11-01T14:25:56;1;-97.2108;16.409298;-127.46113;2.468195
2019-11-01T14:30:56;1;-95.532616;16.536655;-127.70017;2.504346
2019-11-01T14:35:56;1;-99.52147;15.619088;-127.722275;2.4135427
2019-11-01T14:40:56;1;-95.09055;17.636507;-127.73891;2.4868567
2019-11-01T14:45:56;1;-95.710175;17.672056;-127.88243;2.5406115
2019-11-01T14:50:56;1;-94.83264;17.994709;-127.82804;2.4960432
2019-11-01T14:55:56;1;-94.11221;18.159904;-127.37642;2.4022837
2019-11-01T15:00:56;1;-93.72525;18.580965;-127.815605;2.6393282
2019-11-01T15:05:56;1;-97.70311;16.421827;-127.61808;2.5439644
2019-11-01T15:10:56;1;-95.80159;17.101103;-127.94045;2.4187498
2019-11-01T15:15:56;1;-95.26096;17.700897;-128.03227;2.4647634
2019-11-01T15:20:56;1;-89.52277;20.659214;-127.83739;2.5605745
2019-11-01T15:25:56;1;-94.83872;18.19826;-128.05818;2.530543
2019-11-01T15:30:56;1;-95.683464;17.574884;-127.977585;2.6172264
2019-11-01T15:35:56;1;-93.23718;18.687304;-127.9139;2.6802008
2019-11-01T15:40:56;1;-95.719124;17.491587;-127.31656;2.5512135
2019-11-01T15:45:56;1;-93.69155;18.469727;-127.77408;2.3992484
2019-11-01T15:50:56;1;-95.56876;17.512774;-128.04068;2.5217905
2019-11-01T15:55:56;1;-102.27124;14.43168;-128.00844;2.5571263
2019-11-01T16:00:56;1;-95.08047;18.24001;-128.45406;2.4641328
2019-11-01T16:05:56;1;-100.9481;15.202973;-128.0957;2.6205428
2019-11-01T16:10:56;1;-101.08964;15.220007;-127.88341;2.389365
2019-11-01T16:15:56;1;-119.09378;6.3783855;-126.27763;3.4696681
2019-11-01T16:20:56;1;-120.876205;5.491665;-127.44099;2.734096
2019-11-01T16:25:56;1;-119.28451;6.3950586;-128.22665;2.5987904
2019-11-01T16:30:56;1;-122.283104;5.0744658;-128.40593;2.4902208
2019-11-01T16:35:56;1;-119.83699;6.0477023;-127.85354;2.5480883
2019-11-01T16:40:56;1;-121.686005;4.841856;-127.35012;2.5556636
2019-11-01T16:45:56;1;-121.77126;4.772719;-127.42005;2.423624
2019-11-01T16:50:56;1;-120.71639;5.4289813;-127.50014;2.568429
2019-11-01T16:55:56;1;-122.73133;4.430028;-127.63736;2.5014174
2019-11-01T17:00:56;1;-120.08826;6.0059156;-128.2229;2.6036847
2019-11-01T17:05:56;1;-121.62618;5.2892933;-128.30891;2.402607
2019-11-01T17:10:56;1;-121.099945;5.184729;-127.34861;2.656305
2019-11-01T17:15:56;1;-122.01576;4.632617;-127.29617;2.5594456
2019-11-01T17:20:56;1;-121.77828;4.807931;-127.34278;2.5928595
2019-11-01T17:25:56;1;-121.85088;5.0247226;-127.584236;2.7251318
2019-11-01T17:30:56;1;-121.6116;5.098024;-127.66723;2.644388
2019-11-01T17:35:56;1;-121.36595;4.9140725;-127.06077;2.5721333
2019-11-01T17:40:56;1;-121.66459;4.5269136;-124.98046;3.4869404
2019-11-01T17:45:56;1;-121.76691;4.867035;-127.048615;2.8597167
2019-11-01T17:50:56;1;-120.973404;5.5894446;-128.07211;2.5427945
2019-11-01T17:55:56;1;-121.97904;5.0787835;-128.20546;2.4656065
2019-11-01T18:00:56;1;-121.526276;5.2143927;-127.86408;2.5760064
2019-11-01T18:05:56;1;-119.93463;6.067245;-128.06375;2.503893
2019-11-01T18:10:56;1;-120.645775;5.683105;-127.98685;2.5087354
2019-11-01T18:15:56;1;-121.33319;5.489943;-128.33662;2.4238508
2019-11-01T18:20:56;1;-120.990654;5.4914126;-128.03226;2.447169
2019-11-01T18:25:56;1;-119.95554;6.1625276;-128.18947;2.640072
2019-11-01T18:30:56;1;-121.81319;5.2280684;-128.17761;2.5215826
2019-11-01T18:35:56;1;-122.09465;5.0772724;-128.29639;2.4353886
2019-11-01T18:40:56;1;-121.172386;5.3784943;-127.88448;2.4997482
2019-11-01T18:45:56;1;-119.45429;4.1167397;-123.02504;2.5622332
2019-11-01T18:50:56;1;-117.0898;5.068996;-122.85042;2.6298275
2019-11-01T18:55:56;1;-118.614784;4.2988214;-122.98281;2.3333588
2019-11-01T19:00:56;1;-120.362305;3.4224386;-123.069885;2.3554711
2019-11-01T19:05:56;1;-120.39069;3.4211843;-122.87098;2.5308337
2019-11-01T19:10:56;1;-121.50721;3.0217633;-123.00538;2.5305588
2019-11-01T19:15:56;1;-121.386444;2.9192944;-122.79312;2.412682
2019-11-01T19:20:56;1;-120.81335;3.2366986;-123.00867;2.3976998
2019-11-01T19:25:56;1;-119.54862;3.8717828;-123.32579;2.302327
2019-11-01T19:30:56;1;-120.93251;3.165894;-123.01897;2.4136593
2019-11-01T19:35:56;1;-121.19614;3.0551763;-123.09687;2.356505
2019-11-01T19:40:56;1;-119.88192;3.598238;-122.6977;2.4087117
2019-11-01T19:45:56;1;-121.61558;2.9584033;-123.31366;2.3257108
2019-11-01T19:50:56;1;-119.77229;3.9452877;-123.460045;2.3813198
2019-11-01T19:55:56;1;-121.338745;3.350777;-124.00154;2.4385777
2019-11-01T20:00:56;1;-122.04033;4.2770524;-124.94721;3.8683267
2019-11-01T20:05:56;1;-119.87905;6.1853724;-128.31602;2.5617025
2019-11-01T20:10:56;1;-122.0841;5.166003;-128.30652;2.5533354
2019-11-01T20:15:56;1;-121.64608;5.2347903;-128.44684;2.5551784
2019-11-01T20:20:56;1;-121.59412;5.343986;-128.157;2.5985837
2019-11-01T20:25:56;1;-121.91778;5.106864;-128.2186;2.5365407
2019-11-01T20:30:56;1;-122.55948;4.860373;-128.2612;2.5748904
2019-11-01T20:35:56;1;-122.61609;4.850101;-128.2456;2.5819585
2019-11-01T20:40:56;1;-122.310486;4.5188203;-127.225;2.5780082
2019-11-01T20:45:56;1;-122.89562;4.788872;-128.65901;2.4181526
2019-11-01T20:50:56;1;-122.25745;5.1931324;-128.80582;2.3942351
2019-11-01T20:55:56;1;-120.2665;5.6707087;-127.57206;2.4957259
2019-11-01T21:00:56;1;-121.45803;5.2616568;-127.99902;2.4022453
2019-11-01T21:05:56;1;-122.557106;4.9758067;-128.34488;2.6622152
2019-11-01T21:10:56;1;-119.278404;6.732729;-128.68881;2.605295
2019-11-01T21:15:56;1;-122.36012;5.0258255;-128.25803;2.5960994
2019-11-01T21:20:56;1;-122.22252;5.051758;-128.29575;2.5457282
2019-11-01T21:25:56;1;-120.88191;5.7558985;-128.20398;2.6111836
2019-11-01T21:30:56;1;-122.72008;4.978658;-128.6401;2.6192896
2019-11-01T21:35:56;1;-122.302986;5.21788;-128.62282;2.50886
2019-11-01T21:40:56;1;-122.47948;5.3818;-129.23373;2.4794075
2019-11-01T21:45:56;1;-122.8044;5.1138487;-128.96628;2.5873003
2019-11-01T21:50:56;1;-122.81466;5.237142;-129.28336;2.5510917
2019-11-01T21:55:56;1;-122.92501;4.8889723;-128.92963;2.5478606
2019-11-01T22:00:56;1;-123.02399;4.9853435;-128.75568;2.7539904
2019-11-01T22:05:56;1;-123.39015;4.848777;-129.1412;2.4490716
2019-11-01T22:10:56;1;-123.42885;4.859753;-129.0298;2.6164286
2019-11-01T22:15:56;1;-123.207016;5.0383744;-129.07301;2.6779234
2019-11-01T22:20:56;1;-123.70746;4.6405325;-128.96046;2.5455613
2019-11-01T22:25:56;1;-123.523636;4.793348;-129.04202;2.5829797
2019-11-01T22:30:56;1;-124.39386;4.5347433;-129.40092;2.5865614
2019-11-01T22:35:56;1;-123.67137;4.553424;-128.74562;2.5610735
2019-11-01T22:40:56;1;-123.44333;4.859079;-129.21909;2.4607158
2019-11-01T22:45:56;1;-123.61889;4.60773;-128.90486;2.401167
2019-11-01T22:50:56;1;-123.79493;4.3562446;-128.5685;2.4464173
2019-11-01T22:55:56;1;-121.68731;4.866818;-128.73883;2.5341733
2019-11-01T23:00:56;1;-123.23266;4.916509;-128.4882;2.7959242
2019-11-01T23:05:56;1;-124.40119;4.7677417;-129.85757;2.5260708
2019-11-01T23:10:56;1;-123.14981;4.8218813;-128.79164;2.5573962
2019-11-01T23:15:56;1;-123.356346;4.681378;-128.53525;2.6178398
2019-11-01T23:20:56;1;-123.4118;4.7303033;-128.82294;2.5568135
2019-11-01T23:25:56;1;-123.32986;4.8851156;-129.03308;2.5992675
2019-11-01T23:30:56;1;-123.13117;4.827236;-128.66502;2.63682
2019-11-01T23:35:56;1;-123.42961;4.7325473;-128.74527;2.661586
2019-11-01T23:40:56;1;-123.33251;4.6220875;-128.6985;2.43569
2019-11-01T23:45:56;1;-123.08348;4.956426;-128.67833;2.7963068
2019-11-01T23:50:56;1;-123.37137;4.7234154;-128.69258;2.5819316
2019-11-01T23:55:56;1;-123.48197;4.4972715;-128.4131;2.5870583
2019-11-02T00:00:56;1;-123.083176;4.8715777;-128.7512;2.5590618
2019-11-02T00:05:56;1;-123.800156;4.636271;-129.03262;2.5826018
2019-11-02T00:10:56;1;-123.18863;4.9078217;-129.00679;2.4934366
2019-11-02T00:15:56;1;-123.28442;4.947065;-129.20143;2.4848876
2019-11-02T00:20:56;1;-122.056435;5.3721633;-128.84566;2.4692652
2019-11-02T00:25:56;1;-123.213165;4.8752165;-128.94003;2.4858594
2019-11-02T00:30:56;1;-123.22235;4.8492913;-128.89162;2.471167
2019-11-02T00:35:56;1;-123.17358;4.666854;-128.61742;2.4676592
2019-11-02T00:40:56;1;-123.17248;4.64218;-128.47472;2.4714496
2019-11-02T00:45:56;1;-123.57015;4.5401344;-128.56412;2.6035824
2019-11-02T00:50:56;1;-123.82712;4.290051;-128.40456;2.4523606
2019-11-02T00:55:56;1;-123.76293;4.3678555;-128.53418;2.447069
2019-11-02T01:00:56;1;-123.73414;4.3235564;-128.34615;2.5440984
2019-11-02T01:05:56;1;-123.41638;4.485317;-128.39357;2.5679476
2019-11-02T01:10:56;1;-124.067604;4.2512956;-128.45952;2.4816017
2019-11-02T01:15:56;1;-123.91572;4.1867676;-128.26262;2.5303698
2019-11-02T01:20:56;1;-124.234825;4.19835;-128.44426;2.564005
2019-11-02T01:25:56;1;-123.93823;4.182021;-128.22633;2.5306337
2019-11-02T01:30:56;1;-123.89457;4.261487;-128.39543;2.538792
2019-11-02T01:35:56;1;-123.865326;4.197574;-127.93623;2.6927276
2019-11-02T01:40:56;1;-123.64503;4.3093433;-127.91035;2.685425
2019-11-02T01:45:56;1;-124.20122;4.225306;-128.64575;2.4967647
2019-11-02T01:50:56;1;-123.317986;4.56649;-128.29001;2.620511
2019-11-02T01:55:56;1;-124.19742;4.1559453;-128.45673;2.5224197
2019-11-02T02:00:56;1;-124.27395;4.143302;-128.40791;2.5550036
2019-11-02T02:05:56;1;-124.23599;4.1553755;-128.33723;2.6073604
2019-11-02T02:10:56;1;-123.72;4.500714;-128.53323;2.6459079
2019-11-02T02:15:56;1;-124.45248;3.9683416;-128.40512;2.5027864
2019-11-02T02:20:56;1;-124.35527;4.0219445;-128.20944;2.6283395
2019-11-02T02:25:56;1;-124.228905;4.318299;-128.78052;2.5221882
2019-11-02T02:30:56;1;-123.75873;4.5188146;-128.6456;2.5842783
2019-11-02T02:35:56;1;-123.87808;4.357664;-128.41328;2.6164365
2019-11-02T02:40:56;1;-124.10211;4.3480663;-128.63062;2.6555195
2019-11-02T02:45:56;1;-124.0101;4.2330537;-128.45317;2.5305147
2019-11-02T02:50:56;1;-124.17706;4.286073;-128.62674;2.5854242
2019-11-02T02:55:56;1;-124.38925;4.1294;-128.65848;2.4763486
2019-11-02T03:00:56;1;-123.87888;4.552331;-128.86264;2.6159132
2019-11-02T03:05:56;1;-124.22763;4.264975;-128.85147;2.4802341
2019-11-02T03:10:56;1;-123.70966;4.2659616;-127.38896;3.0763018
2019-11-02T03:15:56;1;-123.83122;4.297852;-128.11263;2.8129203
2019-11-02T03:20:56;1;-124.03352;4.381467;-128.62111;2.595154
2019-11-02T03:25:56;1;-124.032555;4.3386927;-128.52954;2.6785095
2019-11-02T03:30:56;1;-124.4634;4.042362;-128.2103;2.8189926
2019-11-02T03:35:56;1;-123.753395;4.548675;-128.9067;2.5510476
2019-11-02T03:40:56;1;-123.9764;4.5149384;-129.00758;2.4758713
2019-11-02T03:45:56;1;-124.78902;4.316392;-129.47983;2.4735832
2019-11-02T03:50:56;1;-124.564926;4.39536;-129.32088;2.548186
2019-11-02T03:55:56;1;-123.10014;5.157252;-129.50232;2.3452523
2019-11-02T04:00:56;1;-124.56033;4.283094;-129.19748;2.4759831
2019-11-02T04:05:56;1;-124.48321;4.29517;-129.04718;2.630272
2019-11-02T04:10:56;1;-124.3817;4.59408;-129.40115;2.720736
2019-11-02T04:15:56;1;-124.21679;4.48392;-129.19084;2.5640574
2019-11-02T04:20:56;1;-124.2222;4.4738684;-129.05977;2.618956
2019-11-02T04:25:56;1;-124.51942;4.4488235;-129.43707;2.5593998
2019-11-02T04:30:56;1;-124.717476;4.388128;-129.57304;2.485066
2019-11-02T04:35:56;1;-124.21051;4.667824;-129.58527;2.4535584
2019-11-02T04:40:56;1;-124.36264;4.4720674;-129.36064;2.4375777
2019-11-02T04:45:56;1;-124.62507;4.327555;-129.23221;2.5718372
2019-11-02T04:50:56;1;-124.25513;4.521549;-129.17975;2.6519718
2019-11-02T04:55:56;1;-124.21972;4.5391054;-129.24388;2.598528
2019-11-02T05:00:56;1;-125.03474;4.216791;-129.24173;2.706836
2019-11-02T05:05:56;1;-125.123405;4.4080315;-129.93785;2.5002787
2019-11-02T05:10:56;1;-124.85126;4.502296;-129.79341;2.593571
2019-11-02T05:15:56;1;-125.01758;4.16854;-129.25111;2.605285
2019-11-02T05:20:56;1;-124.7054;4.1875587;-129.19388;2.493168
2019-11-02T05:25:56;1;-122.92756;5.1626396;-129.02885;2.4900112
2019-11-02T05:30:56;1;-124.51389;4.2714715;-129.02652;2.5673237
2019-11-02T05:35:56;1;-124.70229;4.258205;-129.2732;2.4618647
2019-11-02T05:40:56;1;-124.64646;4.2840014;-129.17918;2.5472033
2019-11-02T05:45:56;1;-123.35188;4.832266;-128.97055;2.6160812
2019-11-02T05:50:56;1;-121.76555;5.7464423;-129.39038;2.3479943
2019-11-02T05:55:56;1;-123.22976;5.0169554;-129.205;2.4933298
2019-11-02T06:00:56;1;-121.84381;5.3177114;-126.846176;3.3095903
2019-11-02T06:05:56;1;-121.63287;5.638929;-129.00536;2.355064
2019-11-02T06:10:56;1;-118.41572;7.06116;-128.4929;2.6696131
2019-11-02T06:15:56;1;-117.74402;7.197739;-128.61987;2.4560735
2019-11-02T06:20:56;1;-115.12456;8.280543;-128.29459;2.581935
2019-11-02T06:25:56;1;-113.899475;8.780987;-128.29417;2.5491266
2019-11-02T06:30:56;1;-112.23057;9.626753;-128.22305;2.589951